Location: Centerville
(32.8776°N, 96.6203°W)
Time: 02:20:07
(UTC+00:00)

Cosmos 1378 Rocket - Pass Details

Date: 17 June 2021
Orbit: 602 x 627 km, 82.5° (Epoch: 27 July)

Event Time Altitude Azimuth Distance (km) Brightness Sun altitude
Exits shadow 02:58:30 - 195° (SSW) 2,777 6.6 -14.9°
Reaches altitude 10° 03:00:34 10° 199° (SSW) 1,946 5.9 -15.2°
Maximum altitude 03:04:48 56° 278° (W) 727 4.2 -15.9°
Drops below altitude 10° 03:09:05 10° 357° (N) 1,973 6.8 -16.5°
Sets 03:11:22 0° 2° (N) 2,886 7.6 -16.9°
